Temp
4 4 4 4 4 4 4 2 1 1 2 2 2 3 4 5 5 5 6 6 4 4 4 5 6 7 8 9 9 10 12 15 14 14 14 16 17 18 15 16 16 16 15
3 4 4 4 4 3 2 -0 0 1 1 2 3 4 4 4 5 5 6 6 6 5 4 4 5 6 7 8 9 10 12 13 15 14 16 16 16 16 16 16 15 15 15
3 2 3 3 3 1 -1 -0 -0 1 2 3 3 2 4 5 6 6 6 6 7 6 5 4 4 5 6 7 8 9 11 14 15 15 16 16 16 15 16 15 15 15 15
2 2 3 3 2 -1 -1 -0 0 1 1 1 2 3 4 5 5 5 6 6 6 7 7 5 4 4 5 6 7 8 10 11 15 15 15 15 16 16 15 15 15 15 15
2 2 3 2 1 -1 0 0 0 -0 0 1 1 2 4 4 5 6 6 6 6 6 7 7 6 5 5 5 7 8 9 13 15 15 15 15 16 16 15 15 15 14 14
2 2 2 2 1 0 0 -0 -1 -0 -0 0 1 1 2 4 5 6 6 6 6 7 6 7 7 7 7 5 6 7 9 11 14 15 15 15 16 15 15 15 14 14 14
2 1 2 2 1 -0 -1 -1 -1 -1 -0 0 0 1 3 5 5 6 6 6 7 6 6 7 7 8 9 6 6 7 8 11 14 15 15 15 15 15 15 15 14 14 14
1 1 1 1 1 -0 -1 -1 -2 -2 -1 0 -1 0 5 7 6 5 6 6 6 6 7 7 8 8 8 9 8 8 8 10 12 14 15 15 15 15 15 14 14 14 14
1 1 1 1 0 -0 -1 -2 -2 -2 -2 -1 -0 -1 1 5 6 5 5 7 6 6 6 7 7 8 8 8 8 8 11 9 13 14 14 14 15 15 15 14 14 14 13
2 1 0 1 1 0 -1 -1 -2 -2 -2 -1 -0 -1 -1 -0 1 3 6 6 6 6 6 7 8 8 8 8 8 9 12 12 13 15 14 14 15 15 14 14 14 13 13
2 1 1 0 1 1 -0 -1 -3 -2 -2 -2 -1 -1 -1 -1 -0 0 2 6 7 7 7 7 7 8 8 9 8 7 11 12 13 15 14 14 15 15 14 14 13 13 13
2 2 1 0 0 0 -1 -2 -3 -2 -2 -2 -2 -2 -2 -1 1 1 1 3 5 6 7 7 8 9 9 9 7 8 10 13 14 14 14 14 14 14 14 14 13 13 13
2 1 0 0 0 -1 -2 -3 -3 -2 -2 -2 -2 -2 -2 -2 -1 -1 0 2 3 4 4 7 9 9 10 9 8 9 10 13 13 14 14 14 14 14 14 14 13 13 13
1 0 -0 -0 -0 -1 -2 -3 -2 -3 -3 -3 -3 -3 -3 -2 -1 -1 -0 1 2 4 4 7 9 10 10 8 8 10 12 13 13 13 14 14 14 14 14 14 13 13 13
1 0 -0 -0 -0 -1 -2 -3 -3 -3 -3 -4 -3 -3 -3 -3 -2 -2 -1 -0 2 3 6 9 11 10 10 8 9 11 13 13 13 13 13 14 14 14 14 14 13 13 13
0 -0 -0 -1 -1 -2 -3 -3 -3 -3 -4 -3 -3 -3 -3 -2 -2 -2 -1 -1 -1 1 6 12 12 10 9 9 11 12 12 12 13 13 13 13 14 14 14 13 13 13 13
0 -0 -1 -1 -1 -3 -3 -3 -4 -4 -4 -3 -3 -3 -2 -2 -1 -1 -1 -1 -1 -1 2 12 12 10 9 11 12 12 12 12 13 14 13 13 14 14 14 13 14 13 13
0 -0 -1 -1 -2 -3 -3 -4 -4 -4 -4 -3 -3 -3 -2 -2 -1 -1 -1 -0 1 1 4 11 9 9 12 12 12 12 12 12 12 13 13 13 14 14 14 13 13 13 13
-0 -0 -1 -1 -2 -3 -4 -4 -4 -4 -4 -3 -3 -3 -2 -1 -1 -0 1 2 2 3 3 6 11 12 12 12 12 12 12 12 11 13 13 13 13 13 14 14 14 13 13
0 -0 -1 -1 -1 -3 -4 -5 -4 -4 -4 -3 -3 -3 -1 -1 0 1 2 4 5 6 8 12 12 12 12 12 12 12 12 11 11 12 12 12 12 13 13 13 13 13 13
0 0 -0 -0 -1 -4 -5 -5 -4 -4 -4 -4 -3 -3 -2 -1 -1 3 4 5 8 9 10 11 11 12 12 12 12 12 12 11 11 11 11 11 12 13 13 13 13 13 13
1 1 0 0 0 -5 -5 -5 -4 -4 -4 -4 -4 -3 -2 -1 -1 0 2 5 6 7 7 10 9 8 7 11 12 12 11 11 12 11 11 11 12 12 12 12 12 12 12
1 1 1 0 0 -5 -5 -5 -4 -4 -4 -4 -4 -3 -3 -2 -1 0 3 5 4 6 6 6 5 5 8 11 11 11 11 12 11 11 11 11 11 10 11 12 11 12 11
1 1 1 0 0 -4 -5 -5 -3 -3 -4 -4 -4 -4 -3 -2 -1 -1 1 1 0 2 4 6 7 7 9 11 12 12 10 11 11 11 10 6 8 6 9 10 11 11 11
2 2 1 1 -0 -1 -5 -5 -3 -3 -4 -4 -5 -4 -4 -3 -2 -1 -0 -1 -0 -0 1 3 5 7 9 11 11 12 11 11 9 7 7 5 4 4 5 6 7 10 11
2 2 1 1 0 -0 -4 -5 -3 -2 -3 -4 -4 -4 -4 -4 -3 -2 -1 -1 -2 -2 1 4 5 7 9 9 10 11 11 10 7 7 6 5 4 6 2 1 3 5 9
Height
822 817 814 811 808 805 801 798 795 792 789 786 782 779 776 774 772 769 766 765 765 764 764 764 764 765 767 768 769 771 771 774 777 785 794 801 804 812 822 826 831 835 839
821 817 813 810 807 804 800 797 794 791 787 783 778 775 772 770 767 765 763 760 760 760 759 759 759 761 763 765 767 768 769 775 775 783 794 797 803 810 820 825 831 836 840
820 816 812 809 805 803 799 796 792 789 785 780 776 772 768 764 762 760 759 757 755 755 754 754 755 756 759 761 763 767 769 770 770 783 792 795 804 812 818 825 831 836 841
819 815 811 808 804 801 798 794 791 787 783 778 773 769 765 760 757 755 754 753 752 751 750 750 750 752 755 758 760 764 768 767 770 779 788 796 803 812 818 825 830 837 842
818 814 810 806 802 799 795 792 788 784 779 775 771 765 760 756 752 749 748 747 747 747 747 747 747 749 750 753 756 760 765 766 766 781 786 797 803 811 819 825 831 838 842
816 812 807 804 800 796 793 789 785 781 777 773 768 764 757 750 747 744 743 743 742 743 743 743 744 745 745 747 751 755 761 765 772 778 790 797 802 811 818 826 832 837 843
814 810 805 801 797 793 790 786 783 779 774 771 766 761 751 742 739 738 737 738 737 738 738 738 739 741 742 742 745 749 756 765 775 778 788 796 802 810 818 826 832 838 844
813 808 803 798 794 790 786 783 780 776 772 769 765 761 745 734 732 735 734 734 734 734 733 734 735 737 738 739 740 743 748 758 770 779 783 793 800 809 818 826 832 838 845
810 805 800 796 791 787 783 779 777 774 769 765 763 761 752 735 733 730 729 727 728 729 729 728 730 731 733 735 736 737 742 752 754 769 782 789 798 809 817 826 832 838 846
806 802 797 793 788 783 779 775 772 769 765 760 756 755 754 750 743 734 724 723 724 725 724 723 724 725 727 729 731 731 737 746 738 767 778 788 796 807 817 825 832 839 847
804 800 795 790 784 779 775 771 766 762 758 754 751 749 747 745 742 740 731 722 718 717 717 718 719 719 721 723 726 727 733 745 750 763 777 787 796 807 816 825 833 840 848
801 797 792 787 781 775 771 766 761 756 751 747 744 742 739 737 733 732 729 725 719 713 712 711 712 713 714 717 719 723 730 735 745 760 775 787 797 806 817 825 834 841 849
800 795 790 785 779 773 767 761 755 749 744 740 737 734 731 729 728 727 726 723 719 714 710 706 705 707 709 711 714 720 724 733 738 758 775 787 798 807 817 825 835 842 850
800 794 789 783 775 769 762 756 749 743 738 733 729 725 722 720 719 719 718 718 714 710 706 698 698 700 703 706 714 717 724 733 744 764 778 787 799 808 817 826 836 844 852
800 794 788 780 773 766 759 751 744 737 732 726 721 717 713 711 709 709 710 711 711 703 696 688 690 695 699 704 710 713 724 738 751 768 779 787 798 809 818 828 837 844 853
800 793 786 778 770 763 755 747 739 733 726 720 713 708 703 699 698 699 702 705 706 705 690 678 682 691 696 700 704 714 727 743 757 770 780 790 801 811 820 830 838 846 854
800 793 785 778 770 761 752 743 736 729 722 715 708 700 693 688 688 690 694 698 699 700 695 679 682 690 693 697 705 720 735 747 762 772 783 795 804 813 822 833 840 848 855
801 793 786 778 769 760 749 742 735 728 720 712 702 694 686 682 683 685 688 691 692 693 690 680 684 685 689 699 711 722 736 753 767 778 789 799 808 817 827 835 842 850 858
802 794 786 778 770 760 750 741 733 726 720 712 703 694 686 682 681 682 684 687 687 685 684 681 678 680 695 707 720 729 743 759 774 786 795 803 812 822 831 838 845 853 861
803 795 788 780 772 762 753 743 735 728 721 712 704 695 688 684 681 680 683 682 679 680 677 678 685 691 701 716 726 732 749 765 777 792 802 811 819 828 836 842 849 857 864
806 799 791 782 774 767 758 746 736 729 721 712 704 698 693 690 682 678 681 676 674 676 681 685 691 700 713 721 731 743 753 767 783 793 804 815 824 833 841 848 854 862 867
809 801 794 786 777 769 762 752 742 733 727 719 711 702 697 693 694 687 684 684 683 687 692 697 706 712 720 729 743 747 757 768 781 798 805 819 829 837 843 851 858 864 870
814 805 799 792 783 776 764 756 749 741 733 729 723 718 712 708 701 698 694 695 699 700 704 708 713 723 730 739 745 756 764 772 782 796 806 819 826 834 844 852 860 867 872
819 812 806 798 789 781 770 761 755 750 744 738 733 727 721 716 714 710 706 708 713 716 720 717 725 733 738 742 749 756 764 775 790 801 808 821 830 838 847 853 861 867 873
825 819 813 806 797 790 779 769 762 757 751 747 745 740 734 729 727 722 717 723 724 731 736 736 737 741 746 753 759 762 772 779 793 804 815 823 834 842 849 856 862 867 871
831 826 820 813 807 800 790 781 772 767 760 756 754 750 747 744 738 733 733 736 738 749 745 745 748 749 751 757 765 774 779 786 798 810 819 827 837 842 855 864 865 867 870
Wind_Speed
15 16 15 15 16 16 17 17 16 16 17 17 17 17 17 17 17 18 19 18 19 18 17 16 16 17 17 17 16 15 13 21 46 45 35 36 36 32 34 31 29 29 28
15 15 15 15 16 16 17 15 16 17 18 18 17 17 18 19 18 18 19 19 19 19 19 18 17 17 18 18 17 15 16 11 46 46 45 40 42 39 34 31 29 29 27
15 15 15 15 16 17 15 14 15 17 18 18 19 20 19 19 18 19 19 20 19 18 18 18 17 17 18 19 18 15 12 9 54 46 43 45 43 41 36 32 32 30 32
15 15 15 15 15 15 13 14 15 17 18 18 19 20 20 20 20 20 21 20 19 17 15 17 16 16 18 19 19 18 13 11 41 48 45 45 44 38 36 37 34 34 33
14 15 14 14 16 14 14 15 17 17 19 19 20 22 22 22 21 20 20 19 19 19 17 15 16 17 18 19 19 19 15 13 43 44 44 46 43 39 39 40 36 37 34
15 15 14 15 15 15 16 16 18 19 20 20 20 23 25 24 23 21 19 19 18 17 18 19 19 16 19 20 21 22 18 13 45 44 43 46 44 43 42 40 38 37 36
16 16 15 16 15 16 17 17 18 19 19 17 18 20 24 25 20 19 17 16 17 18 18 18 18 17 17 18 24 24 24 20 52 51 46 48 48 46 43 41 40 37 37
15 16 15 17 17 18 18 17 17 19 19 18 10 16 8 10 10 13 14 19 21 18 18 19 19 19 18 18 20 28 29 27 32 53 53 53 50 48 45 42 40 38 38
16 16 16 17 18 18 19 18 18 18 19 19 15 8 5 6 9 14 10 13 15 16 16 19 19 21 21 21 21 27 37 34 21 61 54 55 53 49 47 44 40 40 38
17 17 17 18 19 19 19 18 18 18 17 19 17 15 17 15 5 7 9 10 15 17 18 19 19 21 23 23 23 26 39 41 22 61 55 56 56 50 48 45 42 41 37
17 18 18 19 20 20 20 20 20 19 20 18 18 16 16 17 20 10 9 11 16 15 18 21 21 22 24 24 22 26 39 42 43 62 55 55 55 52 49 46 43 41 39
19 18 21 20 21 21 21 21 21 21 20 19 18 18 18 12 11 11 10 11 13 16 16 19 21 23 23 24 23 27 33 33 68 66 57 56 55 53 51 47 44 41 41
21 22 23 23 22 22 22 21 21 21 19 18 19 18 18 20 20 19 18 10 9 14 12 18 22 24 23 22 22 33 25 49 61 65 59 57 56 54 50 48 44 42 41
21 23 24 23 23 23 23 23 22 18 18 19 20 20 20 20 20 21 20 13 7 10 10 14 24 24 22 22 28 34 44 64 57 61 62 60 57 54 51 48 45 43 40
22 23 24 23 24 24 24 25 21 20 19 21 21 20 20 20 19 19 21 20 13 4 9 18 23 24 21 25 27 38 59 58 60 60 60 59 57 54 51 48 46 43 40
23 24 25 24 25 26 27 25 21 19 23 21 21 21 21 18 17 21 22 21 21 15 5 22 19 25 21 30 29 51 56 52 61 60 58 57 57 53 51 48 45 43 40
23 24 25 25 27 27 28 24 23 23 24 23 23 23 21 11 10 17 21 21 20 21 9 15 18 24 31 27 42 51 61 55 59 58 57 57 55 52 49 47 43 41 38
23 24 25 26 28 30 28 28 27 26 25 25 27 26 20 6 8 15 21 21 21 21 15 11 16 26 32 43 40 47 46 49 53 56 57 55 52 49 47 45 42 39 36
24 25 26 27 31 31 32 30 30 28 28 25 26 24 20 13 12 14 15 17 17 18 19 6 15 33 40 43 38 35 44 43 44 54 53 52 50 47 45 42 39 37 35
24 26 27 27 31 31 34 34 28 29 28 27 27 26 27 27 11 10 10 10 13 16 14 27 26 31 33 37 34 40 38 39 41 44 45 43 45 43 41 38 36 34 33
24 26 27 29 31 32 38 36 32 32 32 32 34 33 32 32 36 17 23 19 19 24 27 28 26 34 33 26 26 31 33 36 35 37 34 36 35 38 35 33 32 32 31
26 27 30 31 34 37 42 35 32 31 33 36 34 37 39 36 34 42 42 32 28 23 25 24 23 21 18 24 27 30 34 33 16 33 35 30 31 26 30 28 31 30 28
25 27 31 32 33 39 43 39 33 31 32 37 36 34 35 36 33 36 46 45 42 36 34 26 30 19 22 25 28 33 34 26 25 34 37 26 30 26 22 23 26 27 25
25 26 30 33 33 40 46 42 31 31 32 37 45 40 39 40 36 35 46 47 47 44 37 36 33 25 23 23 25 32 38 36 35 33 35 16 32 29 22 22 25 28 26
25 27 28 32 36 38 46 45 34 32 33 37 40 51 44 44 38 36 43 39 42 37 38 33 29 22 23 28 34 36 35 36 22 22 26 24 21 33 30 26 18 21 26
23 25 27 31 34 36 48 47 37 34 36 35 40 46 52 47 48 45 43 36 39 31 32 32 35 31 32 37 34 31 35 32 26 19 20 16 23 20 10 21 20 20 18
Wind_Direction
332 332 329 328 326 325 323 320 318 315 312 307 301 295 293 288 283 279 278 278 277 277 276 272 269 265 265 267 270 275 246 192 165 159 167 163 173 178 180 174 171 169 167
331 330 328 326 325 324 320 317 314 312 308 304 297 296 293 287 281 277 275 277 276 272 271 268 264 262 259 260 262 271 245 203 169 163 171 176 178 178 179 174 170 167 165
332 330 325 324 324 320 316 315 312 309 306 302 300 298 290 284 279 276 272 271 273 267 266 263 259 257 253 252 256 260 236 174 174 172 178 178 179 177 174 174 168 166 162
334 330 323 322 322 318 315 311 310 305 302 299 299 296 290 284 280 275 269 266 264 263 260 252 251 253 252 248 247 249 242 230 177 175 175 178 180 177 175 172 168 166 161
335 329 323 323 322 318 314 309 307 306 305 302 297 294 290 284 276 271 266 260 255 255 254 248 249 256 247 241 240 240 229 165 172 173 174 180 178 176 175 171 168 166 161
336 335 329 325 323 316 312 309 306 305 300 299 295 295 290 279 275 264 258 254 250 246 251 250 248 254 250 235 233 232 223 199 172 176 183 182 176 178 174 171 169 167 164
336 337 329 324 321 314 307 306 305 303 301 297 295 291 291 277 255 252 249 250 239 254 249 244 239 238 237 238 228 225 218 198 178 188 184 180 178 176 172 173 169 168 165
330 331 327 326 321 313 307 303 300 297 294 294 292 295 290 297 226 223 256 254 247 243 241 242 236 230 228 226 228 223 221 214 197 191 180 180 178 175 174 172 171 169 165
328 328 326 322 318 312 305 300 301 293 292 293 283 265 283 267 347 279 223 234 244 232 246 238 234 228 226 226 223 220 217 208 203 183 176 176 176 176 175 174 172 167 165
329 327 323 320 314 311 305 302 295 290 284 284 282 266 252 256 278 291 273 242 232 253 241 234 227 227 224 222 219 218 207 207 187 177 173 174 174 175 174 174 172 166 168
333 327 322 320 318 316 310 305 301 290 283 278 278 270 258 253 252 253 264 267 244 243 249 235 229 224 220 217 214 213 198 192 180 176 170 171 173 174 173 173 170 167 168
334 329 326 323 321 320 316 308 302 292 286 278 271 262 256 248 239 243 244 256 262 267 253 233 219 218 213 211 211 201 195 178 178 172 170 170 172 173 174 172 169 168 167
334 330 329 327 325 321 315 310 305 298 291 285 281 272 265 255 248 246 252 254 256 264 265 234 214 211 207 203 197 191 194 170 161 169 169 169 172 172 173 170 171 168 168
329 330 330 328 323 323 322 318 312 301 298 293 288 280 271 259 247 238 237 237 244 237 260 231 203 200 196 194 194 186 172 166 159 163 168 169 171 172 171 168 171 168 170
332 334 332 329 330 330 327 324 317 312 311 309 302 292 282 269 252 234 228 228 229 242 217 214 178 185 182 185 185 171 161 155 163 166 166 166 170 172 169 169 170 167 169
339 339 337 336 336 336 330 329 328 327 324 319 313 308 295 278 252 231 219 216 222 234 260 162 168 169 175 178 167 158 164 170 167 168 165 168 170 171 169 170 169 169 168
345 344 343 342 342 340 337 340 342 337 332 330 329 320 313 311 222 201 199 202 213 222 254 140 155 169 174 157 131 148 165 160 168 168 166 171 170 171 170 171 169 169 169
352 350 350 349 347 347 346 349 346 342 341 342 340 336 343 41 157 177 189 198 207 215 231 155 147 169 144 137 131 142 149 154 160 166 167 168 169 169 172 171 169 168 169
358 356 357 354 354 354 355 355 350 352 349 355 350 350 12 66 123 168 183 191 208 215 217 245 155 118 130 134 128 129 137 145 157 167 165 166 167 170 173 172 169 170 170
2 1 1 358 1 3 1 359 357 355 1 8 5 16 34 47 98 129 137 152 185 195 198 123 121 122 125 127 127 127 130 143 151 160 162 164 165 170 173 170 170 172 173
7 6 5 5 7 9 7 4 2 4 12 15 20 27 34 46 58 87 94 77 68 84 95 103 109 117 128 135 125 135 129 135 141 147 150 160 160 167 169 171 172 175 176
12 10 12 10 11 10 10 11 15 15 21 24 23 26 35 46 55 67 80 90 88 73 79 96 101 95 96 112 136 132 134 136 131 147 140 147 155 154 163 172 177 179 179
16 13 16 16 14 14 12 15 18 24 28 32 33 34 37 43 54 65 79 80 79 87 96 98 93 87 108 128 123 131 134 126 127 139 138 115 139 126 154 166 177 178 182
21 17 19 18 16 16 17 15 21 34 36 38 39 38 40 43 50 64 77 70 66 70 79 87 90 98 120 129 124 127 122 117 121 124 130 92 126 104 116 145 172 177 183
24 25 22 23 21 19 20 22 26 30 37 39 42 42 44 46 55 60 72 70 64 64 74 85 92 95 120 136 142 138 129 128 113 104 122 113 112 106 100 97 116 177 185
27 29 29 27 25 25 23 24 28 32 36 38 42 43 42 51 57 61 64 63 64 54 70 85 90 99 107 124 135 144 141 128 122 111 124 115 131 115 79 86 104 112 156